Flag for Germany Weather past 2 weeks in Coburg, Bavaria, Germany

Now
44 °F

Scattered clouds.


Feels Like: 40 °F
Forecast: 33 / 42 °F
Wind: 7 mph from Northwest

Location: Bamberg

Current Time: Mar 2, 2015 at 1:21:45 PM

Latest Report: Mar 2, 2015 at 1:00 PM


Visibility: 16 mi

Pressure: 29.73 "Hg

Humidity: 70%

Dew point: 35 °F

Location of CoburgLocation

Historic Weather in Coburg — Graph

°F

Coburg temperature yesterday

Maximum temperature yesterday: 46 °F (at 5:00 PM)
Minimum temperature yesterday: 32 °F (at 1:00 AM)
Average temperature yesterday: 39 °F

Past Weeks' High & Low Weather Summary

 TemperatureHumidityPressure
High53 °F (Feb 20, 4:00 PM)99% (Feb 17, 5:00 AM)30.79 "Hg (Feb 17, 5:00 AM)
Low21 °F (Feb 27, 7:00 AM)42% (Feb 26, 2:00 PM)29.50 "Hg (Feb 21, 12:00 PM)
Average35 °F82%30.06 "Hg
* Reported Feb 15 12:00 Noon — Mar 2 12:00 Noon, Coburg, Weather by CustomWeather, © 2015

Note: Actual official high and low records may vary slightly from our data, if they occured in-between our weather recording intervals... More about our weather records

Advertising

Coburg weather history for previous 24 hours

 ConditionsComfort  
Time TempWeatherWind HumidityBarometerVisibility
12:00 PM
Mon, Mar 2
46 °FOvercast.6 mph67%29.70 "Hg22 mi
11:00 AM40 °FLight freezing rain. Overcast.3 mph84%29.71 "Hg22 mi
10:00 AM39 °FLight freezing rain. Partly sunny.5 mph88%29.71 "Hg3 mi
9:00 AM43 °FOvercast.5 mph73%29.65 "Hg43 mi
8:00 AM42 °FOvercast.3 mph74%29.63 "Hg43 mi
7:00 AM43 °FOvercast.5 mph76%29.61 "Hg43 mi
6:00 AM45 °FOvercast.5 mph84%29.57 "Hg43 mi
5:00 AM46 °FRain. Low clouds.8 mph82%29.56 "Hg4 mi
4:00 AM44 °FLight rain. Overcast.3 mph94%29.57 "Hg3 mi
3:00 AM43 °FRain. Low clouds.3 mph94%29.59 "Hg2 mi
2:00 AM44 °FOvercast.5 mph91%29.62 "Hg9 mi
1:00 AM44 °FOvercast.5 mph93%29.67 "Hg6 mi
12:00 AM44 °FDrizzle. Overcast.2 mph96%29.69 "Hg4 mi
11:00 PM
Sun, Mar 1
45 °FOvercast.3 mph92%29.71 "Hg8 mi
10:00 PM45 °FPassing clouds.3 mph92%29.73 "Hg9 mi
8:00 PM46 °FOvercast.2 mph89%29.74 "Hg22 mi
7:00 PM45 °FOvercast.3 mph89%29.74 "Hg19 mi
6:00 PM45 °FOvercast.3 mph88%29.75 "Hg22 mi
5:00 PM46 °FOvercast.3 mph85%29.76 "Hg25 mi
4:00 PM46 °FOvercast.2 mph87%29.75 "Hg22 mi
3:00 PM44 °FOvercast.5 mph92%29.76 "Hg11 mi
2:00 PM42 °FPartly sunny.5 mph93%29.78 "Hg6 mi
1:00 PM39 °FDrizzle. Low clouds.3 mph95%29.79 "Hg2 mi
Weather by CustomWeather, © 2015

See weather overviewHow to use our weather pages